CDT,Max TemperatureF,Mean TemperatureF,Min TemperatureF,Max Dew PointF,MeanDew PointF,Min DewpointF,Max Humidity, Mean Humidity, Min Humidity, Max Sea Level PressureIn, Mean Sea Level PressureIn, Min Sea Level PressureIn, Max VisibilityMiles, Mean VisibilityMiles, Min VisibilityMiles, Max Wind SpeedMPH, Mean Wind SpeedMPH, Max Gust SpeedMPH,PrecipitationIn, CloudCover, Events, WindDirDegrees
2012-10-1,77,61,44,49,41,32,86,56,26,29.91,29.89,29.86,10,10,7,23,8,29,0.00,0,,351
2012-10-2,76,60,44,48,40,36,76,53,29,29.96,29.90,29.85,10,9,4,13,4,17,0.00,0,,349
2012-10-3,79,59,38,49,40,35,89,56,23,29.96,29.91,29.84,10,8,2,17,5,26,0.00,0,,173
2012-10-4,62,52,41,45,37,30,86,61,36,30.27,30.11,29.91,10,10,10,24,14,36,0.02,2,Rain,296
2012-10-5,50,40,30,29,23,18,85,56,27,30.30,30.26,30.20,10,10,10,22,10,30,0.00,0,,292
2012-10-6,44,34,23,27,23,19,75,62,49,30.33,30.29,30.25,10,10,10,21,9,29,0.00,5,,317
2012-10-7,55,37,18,25,20,15,92,59,26,30.30,30.19,30.04,10,10,9,16,6,23,0.00,0,,235
2012-10-8,68,52,36,34,31,26,76,51,26,30.03,29.90,29.80,10,10,10,30,16,38,0.00,0,,201
2012-10-9,57,44,31,42,35,30,71,63,54,30.08,29.92,29.80,10,10,9,25,10,31,0.05,2,Rain,280
2012-10-10,58,43,28,29,25,19,85,54,23,30.23,30.14,30.06,10,10,10,20,10,25,0.00,0,,252
2012-10-11,63,50,37,34,30,25,62,48,34,30.36,30.13,30.02,10,10,10,21,13,26,0.00,2,,295
2012-10-12,58,44,30,44,25,15,86,53,19,30.45,30.28,30.08,10,10,7,18,9,25,0.07,3,Rain-Thunderstorm,113
2012-10-13,75,63,50,65,57,45,100,84,68,30.03,29.81,29.65,10,7,3,21,11,25,0.73,8,Rain-Thunderstorm,169
2012-10-14,61,51,40,64,51,37,100,79,57,29.94,29.71,29.54,10,8,3,33,15,44,0.30,6,Rain-Thunderstorm,317
2012-10-15,67,51,35,43,39,34,92,65,37,30.00,29.93,29.83,10,10,10,10,4,13,0.00,0,,171
2012-10-16,75,61,47,52,47,43,86,65,44,29.81,29.54,29.42,10,10,7,20,10,23,0.00,0,,191
2012-10-17,62,55,47,53,45,33,80,64,47,29.48,29.40,29.32,10,10,10,28,14,36,0.05,4,Rain,256
2012-10-18,49,46,42,45,41,33,93,75,56,29.43,29.39,29.33,10,8,4,39,18,51,0.44,8,Rain,286
2012-10-19,48,46,43,45,43,41,100,93,86,29.78,29.61,29.43,10,8,2,22,12,29,0.03,8,Rain,306
2012-10-20,56,49,42,46,43,41,96,84,71,29.87,29.82,29.78,10,10,10,12,4,15,0.00,5,,173
2012-10-21,75,58,41,59,51,40,96,75,54,29.86,29.82,29.77,10,10,6,14,7,17,0.00,2,,133
2012-10-22,76,68,60,65,63,59,100,85,69,29.83,29.79,29.73,10,8,3,20,7,28,0.20,5,Rain-Thunderstorm,123
2012-10-23,73,66,58,65,62,57,100,87,73,29.79,29.75,29.69,10,7,0,17,8,23,0.00,5,Fog,161
2012-10-24,75,64,53,67,63,54,100,87,73,29.79,29.74,29.67,10,6,0,17,9,22,0.00,6,Fog,161
2012-10-25,54,45,35,52,42,27,93,79,64,30.28,29.81,29.59,10,8,1,32,20,41,0.46,8,Rain-Thunderstorm,331
2012-10-26,43,36,29,30,27,25,89,70,51,30.46,30.41,30.30,10,10,10,20,9,24,0.00,5,,307
2012-10-27,45,37,29,28,25,22,78,62,45,30.43,30.37,30.32,10,10,10,10,3,13,0.00,4,,319
2012-10-28,48,38,27,27,24,21,92,65,37,30.39,30.34,30.29,10,10,7,12,2,21,0.00,2,,142
2012-10-29,50,39,27,33,27,22,85,65,45,30.34,30.29,30.21,10,10,10,17,5,23,0.00,3,,136
2012-10-30,52,39,25,29,27,23,85,63,41,30.21,30.11,30.04,10,10,10,14,7,18,0.00,1,,355
2012-10-31,53,40,27,28,25,23,85,59,32,30.08,30.03,29.99,10,10,6,13,6,14,0.00,1,,332